| time (UTC) | temp C | wind direction | speed KPH | gust KPH | rain 1hr cm | rain 24hr cm | rain mn cm | humidity % | barometer mb |
| 20260504231502 | 12 | 0.0 | 0.0 | 0.00 | 0.18 | 0.00 | 74 | 1005.4 | |
| 20260504230002 | 12 | 0.0 | 0.0 | 0.00 | 0.18 | 0.00 | 72 | 1005.2 | |
| 20260504224502 | 13 | 0.0 | 0.0 | 0.00 | 0.20 | 0.00 | 69 | 1005.0 | |
| 20260504223001 | 13 | 0.0 | 0.0 | 0.00 | 0.20 | 0.00 | 68 | 1004.7 | |
| 20260504221559 | 14 | 0.0 | 0.0 | 0.00 | 0.20 | 0.00 | 67 | 1004.5 | |
| 20260504220101 | 15 | 0.0 | 0.0 | 0.00 | 0.20 | 0.00 | 64 | 1004.2 | |
| 20260504214658 | 15 | 0.0 | 0.0 | 0.00 | 0.25 | 0.00 | 64 | 1004.2 | |
| 20260504213130 | 15 | 0.0 | 0.0 | 0.00 | 0.25 | 0.00 | 62 | 1003.9 | |
| 20260504211605 | 15 | 0.0 | 0.0 | 0.00 | 0.25 | 0.00 | 62 | 1003.9 | |
| 20260504210057 | 15 | 0.0 | 0.0 | 0.00 | 0.25 | 0.00 | 62 | 1003.9 | |
| 20260504204557 | 15 | 0.0 | 0.0 | 0.00 | 0.33 | 0.00 | 62 | 1003.7 | |
| 20260504203117 | 15 | 0.0 | 0.0 | 0.00 | 0.33 | 0.00 | 61 | 1003.7 | |
| 20260504201555 | 15 | 0.0 | 0.0 | 0.00 | 0.33 | 0.00 | 62 | 1003.9 | |
| 20260504200054 | 15 | 0.0 | 0.0 | 0.00 | 0.33 | 0.00 | 63 | 1003.9 | |
| 20260504194603 | 15 | 0.0 | 0.0 | 0.00 | 0.41 | 0.00 | 63 | 1003.9 | |
| 20260504193100 | 15 | 0.0 | 0.0 | 0.00 | 0.41 | 0.00 | 63 | 1003.9 | |
| 20260504191553 | 13 | 0.0 | 0.0 | 0.00 | 0.41 | 0.00 | 64 | 1004.1 | |
| 20260504190113 | 13 | 0.0 | 0.0 | 0.00 | 0.41 | 0.00 | 70 | 1004.5 | |
| 20260504184559 | 12 | 0.0 | 0.0 | 0.00 | 0.61 | 0.00 | 65 | 1004.5 | |
| 20260504183050 | 13 | 0.0 | 0.0 | 0.00 | 0.61 | 0.00 | 61 | 1004.4 | |
| 20260504181549 | 13 | 0.0 | 0.0 | 0.00 | 0.61 | 0.00 | 62 | 1004.2 | |
| 20260504180049 | 12 | 0.0 | 0.0 | 0.00 | 0.61 | 0.00 | 62 | 1004.0 | |
| 20260504174551 | 13 | 0.0 | 0.0 | 0.00 | 0.99 | 0.00 | 61 | 1003.5 | |
| 20260504173052 | 15 | 0.0 | 0.0 | 0.00 | 0.99 | 0.00 | 52 | 1003.4 | |
| 20260504171547 | 15 | 0.0 | 0.0 | 0.00 | 0.99 | 0.00 | 48 | 1003.3 | |
| 20260504081521 | 1 | 0.0 | 0.0 | 0.00 | 2.24 | 0.00 | 90 | 1003.8 | |
| 20260504044601 | 5 | 0.0 | 0.0 | 0.00 | 2.44 | 0.00 | 93 | 1002.2 | |
| 20260504043050 | 5 | 0.0 | 0.0 | 0.00 | 2.44 | 0.00 | 93 | 1002.0 | |
| 20260504041547 | 5 | 0.0 | 0.0 | 0.00 | 2.44 | 0.00 | 93 | 1001.7 | |
| 20260504040045 | 5 | 0.0 | 0.0 | 0.03 | 2.44 | 0.00 | 93 | 1001.6 | |
| 20260504034552 | 5 | 0.0 | 0.0 | 0.03 | 2.44 | 2.44 | 93 | 1001.5 | |
| 20260504033053 | 5 | 0.0 | 0.0 | 0.03 | 2.44 | 2.44 | 93 | 1001.4 | |
| 20260504031544 | 5 | 0.0 | 0.0 | 0.03 | 2.44 | 2.44 | 93 | 1001.4 | |
| 20260504030043 | 5 | 0.0 | 0.0 | 0.00 | 2.41 | 2.41 | 93 | 1001.1 | |
| 20260504024546 | 5 | 0.0 | 0.0 | 0.00 | 2.41 | 2.41 | 93 | 1001.0 | |
| 20260504023042 | 5 | 0.0 | 0.0 | 0.00 | 2.41 | 2.41 | 93 | 1001.0 | |
| 20260504021543 | 5 | 0.0 | 0.0 | 0.00 | 2.41 | 2.41 | 93 | 1000.9 | |
| 20260504020041 | 5 | 0.0 | 0.0 | 0.03 | 2.41 | 2.41 | 93 | 1000.9 | |
| 20260504014541 | 5 | 0.0 | 0.0 | 0.03 | 2.41 | 2.41 | 93 | 1000.5 | |
| 20260504013043 | 5 | 0.0 | 0.0 | 0.05 | 2.41 | 2.41 | 93 | 1000.6 | |
| 20260504011540 | 5 | 0.0 | 0.0 | 0.05 | 2.41 | 2.41 | 93 | 1000.3 | |
| 20260504010051 | 5 | 0.0 | 0.0 | 0.05 | 2.39 | 2.39 | 93 | 1000.2 | |
| 20260504004541 | 5 | 0.0 | 0.0 | 0.08 | 2.39 | 2.39 | 93 | 1000.0 | |
| 20260504003039 | 5 | 0.0 | 0.0 | 0.05 | 2.36 | 2.36 | 93 | 999.8 | |
| 20260504001559 | 5 | 0.0 | 0.0 | 0.08 | 2.36 | 2.36 | 93 | 999.6 | |
| 20260504000041 | 5 | 0.0 | 0.0 | 0.05 | 2.34 | 2.34 | 93 | 999.4 | |
| 20260503234537 | 5 | 0.0 | 0.0 | 0.05 | 2.31 | 2.31 | 93 | 999.3 | |
| 20260503233036 | 5 | 0.0 | 0.0 | 0.05 | 2.31 | 2.31 | 93 | 999.2 |